Regional Weather Roundup
Issued by NWS

Home | Current Version | Previous Version | Graphics & Text | Print | Product List | Glossary On
Versions: 1 2 3 4 5 6 7 8 9 10 11 12 13 14 15 16 17 18 19 20 21 22 23 24 25 26 27 28 29 30 31 32 33 34 35 36 37 38 39 40 41 42 43 44 45 46 47 48 49 50
000
ASUS43 KFSD 222202
RWRSD

WEATHER ROUNDUP FOR SOUTH DAKOTA
NATIONAL WEATHER SERVICE SIOUX FALLS SD
400 PM CST THU FEB 22 2018

NOTE: "FAIR" INDICATES FEW OR NO CLOUDS BELOW 12,000 FEET WITH NO
SIGNIFICANT WEATHER AND/OR OBSTRUCTIONS TO VISIBILITY.


SDZ001>005-009-010-012>017-222300-
NORTHWEST AND NORTH CENTRAL SOUTH DAKOTA

CITY           SKY/WX    TMP DP  RH WIND       PRES   REMARKS
BUFFALO          N/A      9   1  70 CALM      30.02S
FAITH            N/A      3   0  87 N7        30.11S WCI  -9
$$

SDZ012>016-024>037-041>051-057-063-072>074-222300-
SOUTHWEST AND SOUTH CENTRAL SOUTH DAKOTA

CITY           SKY/WX    TMP DP  RH WIND       PRES   REMARKS
RAPID CTY ARPT CLOUDY    11   4  73 N6        30.05R WCI   1
PIERRE         LGT SNOW  22  20  92 E12       30.15F FOG     WCI  10
CUSTER         PTSUNNY   25  10  53 SE7       29.89R WCI  17
ELLSWORTH AFB  CLOUDY    10   2  69 N6        30.03S WCI   1
PHILIP         LGT SNOW  12   8  84 N10       30.12S FOG     WCI  -1
PINE RIDGE     LGT SNOW  24  21  88 SW5       30.03R FOG     WCI  18
SPEARFISH        N/A     18   7  62 NW8       30.00F WCI   7
WINNER         LGT SNOW  23  18  81 SE12      30.14R WCI  12
$$

SDZ004>011-016>023-039-040-222300-
NORTHEAST SOUTH DAKOTA

CITY           SKY/WX    TMP DP  RH WIND       PRES   REMARKS
ABERDEEN       CLOUDY    27  21  78 SE6       30.25F WCI  20
WATERTOWN      SNOW      24  22  91 E7        30.23F VSB 1/2 WCI  16
BROOKINGS      LGT SNOW  24  22  91 E12       30.22F VSB 3/4 WCI  13
SISSETON         N/A     23  18  81 SE10      30.31F WCI  12
$$

SDZ017-020-022-023-036>040-048>070-222300-
SOUTHEAST SOUTH DAKOTA

CITY           SKY/WX    TMP DP  RH WIND       PRES   REMARKS
SIOUX FALLS    LGT SNOW  24  21  88 E12       30.22F VSB 3/4 WCI  13
HURON          SNOW      23  21  92 E10       30.22F VSB 1/2 WCI  12
CHAMBERLAIN    LGT SNOW  23  22  95 E12       30.17F WCI  12
MITCHELL       SNOW      23  21  92 SE12      30.24S VSB 1/4 WCI  12
YANKTON        FLURRIES  24  20  84 E8        30.21  WCI  15
$$

ABBREVIATIONS USED IN REMARKS
   TC - TEMPERATURE IN CELSIUS
  WCI - WIND CHILL INDEX
   HX - HEAT INDEX
  VSB - VISIBILITY





USA.gov is the U.S. government's official web portal to all federal, state and local government web resources and services.